Location: Unspecified
(29.7070°N, 0.0000°E)
Time: 19:12:20
(UTC+00:00)

EMISAT - Visible Passes

Search period start: 04 April 2026 00:00
Search period end: 14 April 2026 00:00
Orbit: 732 x 761 km, 98.5° (Epoch: 29 March)

Date Brightness Start Highest point End Pass type
(mag) Time Alt. Az. Time Alt. Az. Time Alt. Az.
4 Apr ? 19:46:59 11° NE 19:46:59 11° NE 19:47:16 10° NE visible
4 Apr ? 21:26:47 19° NNW 21:26:47 19° NNW 21:28:10 10° NNW visible
5 Apr ? 20:43:58 24° N 20:43:58 24° N 20:45:57 10° N visible
6 Apr ? 20:01:09 15° NE 20:01:09 15° NE 20:02:32 10° NNE visible
6 Apr ? 21:40:58 16° NW 21:40:58 16° NW 21:42:07 10° NNW visible
7 Apr ? 20:58:09 26° N 20:58:09 26° N 21:00:16 10° N visible
8 Apr ? 20:15:21 19° NE 20:15:21 19° NE 20:17:20 10° NNE visible
8 Apr ? 21:55:09 14° NW 21:55:09 14° NW 21:55:55 10° NW visible
9 Apr ? 21:12:20 26° NNW 21:12:20 26° NNW 21:14:28 10° NNW visible
10 Apr ? 20:29:32 24° NNE 20:29:32 24° NNE 20:31:54 10° N visible
10 Apr ? 22:09:20 10° NW 22:09:20 10° NW 22:09:27 10° NW visible
11 Apr ? 19:46:44 12° NE 19:46:44 12° NE 19:47:38 10° NE visible
11 Apr ? 21:26:32 24° NNW 21:26:32 24° NNW 21:28:32 10° NNW visible
12 Apr ? 20:43:44 29° NNE 20:43:44 29° NNE 20:46:20 10° N visible
13 Apr ? 20:00:55 16° NE 20:00:55 16° NE 20:02:55 10° NNE visible
13 Apr ? 21:40:43 20° NW 21:40:43 20° NW 21:42:29 10° NNW visible
